CFTAM CYBL-CYVR

Flight info

Callsign CFTAM
Flight time 0h 25m
Altitude 9000
Route VIGSO SOUND6
Aircraft B350/L-VGD/C

Departure

Time 2026-05-07 03:36
Airport Campbell River Airport (CYBL)

Arrival

Time 2026-05-07 04:02
Airport Vancouver International Airport (CYVR)
Time Latitude Longitude Altitude Speed Heading
2026-05-07 03:21 49.95173 -125.26951 350 ft 0 kts 89°
2026-05-07 03:29 49.95159 -125.26936 350 ft 14 kts 213°
2026-05-07 03:29 49.95167 -125.26995 350 ft 3 kts 169°
2026-05-07 03:30 49.95122 -125.26969 350 ft 9 kts 210°
2026-05-07 03:30 49.95145 -125.27041 350 ft 12 kts 322°
2026-05-07 03:30 49.95221 -125.27165 350 ft 22 kts 318°
2026-05-07 03:30 49.95354 -125.27368 350 ft 30 kts 316°
2026-05-07 03:31 49.95467 -125.27540 350 ft 12 kts 316°
2026-05-07 03:31 49.95543 -125.27654 350 ft 16 kts 314°
2026-05-07 03:31 49.95589 -125.27738 350 ft 7 kts 256°
2026-05-07 03:31 49.95586 -125.27743 350 ft 0 kts 212°
2026-05-07 03:32 49.95585 -125.27744 350 ft 0 kts 213°
2026-05-07 03:34 49.95566 -125.27777 350 ft 13 kts 232°
2026-05-07 03:34 49.95597 -125.27921 350 ft 22 kts 315°
2026-05-07 03:34 49.95729 -125.28125 350 ft 28 kts 316°
2026-05-07 03:34 49.95804 -125.28212 350 ft 1 kts 249°
2026-05-07 03:35 49.95792 -125.28215 350 ft 0 kts 141°
2026-05-07 03:35 49.95741 -125.28131 350 ft 46 kts 134°
2026-05-07 03:35 49.95293 -125.27448 350 ft 127 kts 136°
2026-05-07 03:36 49.94562 -125.26315 444 ft 163 kts 135°
2026-05-07 03:36 49.93732 -125.25006 830 ft 181 kts 133°
2026-05-07 03:36 49.92850 -125.23554 1327 ft 187 kts 133°
2026-05-07 03:36 49.91950 -125.22057 1784 ft 194 kts 133°
2026-05-07 03:37 49.91007 -125.20488 2246 ft 200 kts 133°
2026-05-07 03:37 49.90048 -125.18902 2700 ft 204 kts 133°
2026-05-07 03:37 49.89062 -125.17293 3153 ft 207 kts 133°
2026-05-07 03:37 49.88052 -125.15664 3586 ft 211 kts 133°
2026-05-07 03:38 49.87030 -125.14019 4038 ft 213 kts 133°
2026-05-07 03:38 49.85996 -125.12347 4490 ft 216 kts 133°
2026-05-07 03:38 49.84950 -125.10640 4921 ft 220 kts 133°
2026-05-07 03:38 49.83903 -125.08906 5370 ft 222 kts 133°
2026-05-07 03:39 49.82851 -125.07139 5805 ft 223 kts 133°
2026-05-07 03:39 49.81802 -125.05361 6249 ft 225 kts 133°
2026-05-07 03:39 49.80745 -125.03567 6695 ft 226 kts 133°
2026-05-07 03:39 49.79686 -125.01768 7141 ft 226 kts 133°
2026-05-07 03:40 49.78628 -124.99968 7590 ft 227 kts 133°
2026-05-07 03:40 49.77562 -124.98154 8038 ft 228 kts 133°
2026-05-07 03:40 49.76497 -124.96343 8487 ft 227 kts 133°
2026-05-07 03:40 49.75434 -124.94532 8869 ft 231 kts 133°
2026-05-07 03:41 49.74323 -124.92642 8973 ft 242 kts 133°
2026-05-07 03:41 49.73171 -124.90683 9003 ft 250 kts 133°
2026-05-07 03:41 49.71988 -124.88673 9008 ft 254 kts 133°
2026-05-07 03:41 49.70792 -124.86644 9009 ft 256 kts 133°
2026-05-07 03:42 49.69595 -124.84612 9012 ft 256 kts 133°
2026-05-07 03:42 49.68390 -124.82569 9008 ft 257 kts 133°
2026-05-07 03:42 49.67189 -124.80533 9008 ft 257 kts 133°
2026-05-07 03:42 49.65977 -124.78481 9008 ft 257 kts 133°
2026-05-07 03:43 49.64784 -124.76459 9009 ft 257 kts 133°
2026-05-07 03:43 49.63564 -124.74393 9008 ft 257 kts 133°
2026-05-07 03:43 49.62358 -124.72353 9009 ft 257 kts 133°
2026-05-07 03:43 49.61166 -124.70337 9006 ft 257 kts 133°
2026-05-07 03:44 49.59963 -124.68302 9007 ft 257 kts 133°
2026-05-07 03:44 49.58761 -124.66270 9008 ft 257 kts 133°
2026-05-07 03:44 49.57758 -124.63994 9011 ft 257 kts 114°
2026-05-07 03:44 49.57190 -124.61386 9010 ft 257 kts 104°
2026-05-07 03:45 49.56777 -124.58709 9009 ft 257 kts 102°
2026-05-07 03:45 49.56436 -124.56007 9009 ft 257 kts 98°
2026-05-07 03:45 49.56191 -124.53281 9008 ft 257 kts 96°
2026-05-07 03:45 49.55981 -124.50533 9008 ft 257 kts 96°
2026-05-07 03:46 49.55783 -124.47798 9007 ft 257 kts 96°
2026-05-07 03:46 49.55585 -124.45016 9005 ft 257 kts 96°
2026-05-07 03:46 49.55395 -124.42322 9005 ft 256 kts 96°
2026-05-07 03:46 49.55185 -124.39559 9005 ft 256 kts 97°
2026-05-07 03:47 49.54948 -124.36841 9005 ft 256 kts 97°
2026-05-07 03:47 49.54694 -124.34151 9005 ft 256 kts 98°
2026-05-07 03:47 49.54420 -124.31441 9004 ft 256 kts 98°
2026-05-07 03:47 49.54140 -124.28727 9004 ft 256 kts 98°
2026-05-07 03:48 49.53860 -124.26020 9004 ft 256 kts 98°
2026-05-07 03:48 49.53576 -124.23273 9002 ft 256 kts 98°
2026-05-07 03:48 49.53295 -124.20567 9003 ft 256 kts 99°
2026-05-07 03:48 49.53022 -124.17892 9005 ft 256 kts 98°
2026-05-07 03:49 49.52762 -124.15178 9001 ft 256 kts 98°
2026-05-07 03:49 49.52509 -124.12469 9002 ft 256 kts 97°
2026-05-07 03:49 49.52257 -124.09750 9000 ft 256 kts 98°
2026-05-07 03:49 49.52082 -124.07855 9001 ft 256 kts 97°
2026-05-07 03:50 49.51838 -124.05219 9001 ft 256 kts 97°
2026-05-07 03:50 49.51586 -124.02504 9001 ft 256 kts 97°
2026-05-07 03:50 49.51398 -123.99777 9001 ft 256 kts 96°
2026-05-07 03:50 49.51162 -123.97064 8999 ft 256 kts 98°
2026-05-07 03:51 49.50884 -123.94367 8999 ft 256 kts 99°
2026-05-07 03:51 49.50591 -123.91660 9001 ft 256 kts 99°
2026-05-07 03:51 49.50297 -123.88957 8999 ft 256 kts 99°
2026-05-07 03:51 49.50001 -123.86212 9002 ft 256 kts 99°
2026-05-07 03:52 49.49714 -123.83534 8999 ft 256 kts 99°
2026-05-07 03:52 49.49427 -123.80832 8996 ft 256 kts 99°
2026-05-07 03:52 49.49140 -123.78121 8997 ft 256 kts 99°
2026-05-07 03:52 49.48855 -123.75418 8993 ft 256 kts 99°
2026-05-07 03:53 49.48531 -123.72724 8992 ft 256 kts 106°
2026-05-07 03:53 49.47641 -123.70381 8996 ft 256 kts 134°
2026-05-07 03:53 49.46146 -123.68962 9000 ft 254 kts 163°
2026-05-07 03:53 49.44380 -123.68573 9004 ft 253 kts 179°
2026-05-07 03:54 49.42621 -123.68605 9000 ft 253 kts 184°
2026-05-07 03:54 49.40856 -123.68758 8999 ft 254 kts 185°
2026-05-07 03:54 49.39123 -123.68943 8999 ft 254 kts 185°
2026-05-07 03:54 49.37337 -123.69144 8999 ft 254 kts 185°
2026-05-07 03:55 49.35578 -123.69345 8998 ft 254 kts 185°
2026-05-07 03:55 49.33820 -123.69546 8999 ft 254 kts 185°
2026-05-07 03:55 49.32065 -123.69371 8982 ft 256 kts 164°
2026-05-07 03:55 49.30500 -123.68080 9003 ft 256 kts 144°
2026-05-07 03:56 49.29136 -123.66328 9001 ft 252 kts 138°
2026-05-07 03:56 49.27929 -123.64571 8808 ft 234 kts 136°
2026-05-07 03:56 49.26779 -123.62831 8370 ft 231 kts 136°
2026-05-07 03:56 49.25649 -123.61104 7929 ft 228 kts 135°
2026-05-07 03:57 49.24536 -123.59397 7489 ft 225 kts 135°
2026-05-07 03:57 49.23457 -123.57706 7052 ft 223 kts 131°
2026-05-07 03:57 49.22902 -123.56349 6755 ft 222 kts 116°
2026-05-07 03:57 49.22353 -123.54149 6325 ft 223 kts 108°
2026-05-07 03:58 49.21946 -123.51865 5907 ft 222 kts 104°
2026-05-07 03:58 49.21665 -123.49541 5119 ft 234 kts 91°
2026-05-07 03:58 49.21836 -123.47001 4660 ft 229 kts 87°
2026-05-07 03:58 49.21642 -123.44674 4212 ft 221 kts 105°
2026-05-07 03:59 49.21240 -123.42393 3649 ft 224 kts 101°
2026-05-07 03:59 49.20999 -123.40061 3281 ft 218 kts 101°
2026-05-07 03:59 49.20670 -123.37865 2820 ft 216 kts 95°
2026-05-07 03:59 49.20727 -123.35498 2199 ft 221 kts 92°
2026-05-07 04:00 49.20493 -123.33229 1844 ft 212 kts 102°
2026-05-07 04:00 49.20204 -123.31031 1342 ft 212 kts 102°
2026-05-07 04:00 49.19918 -123.28892 1241 ft 192 kts 101°
2026-05-07 04:00 49.19680 -123.26984 1094 ft 179 kts 100°
2026-05-07 04:01 49.19459 -123.25114 844 ft 167 kts 101°
2026-05-07 04:01 49.19290 -123.23653 664 ft 132 kts 98°
2026-05-07 04:01 49.19167 -123.22308 340 ft 121 kts 98°
2026-05-07 04:01 49.19043 -123.21112 108 ft 105 kts 98°
2026-05-07 04:02 49.18934 -123.20077 19 ft 90 kts 99°
2026-05-07 04:02 49.18866 -123.19490 18 ft 39 kts 102°
2026-05-07 04:02 49.18824 -123.19154 18 ft 26 kts 100°
2026-05-07 04:02 49.18787 -123.18860 18 ft 29 kts 102°
2026-05-07 04:03 49.18740 -123.18624 18 ft 17 kts 128°
2026-05-07 04:03 49.18638 -123.18461 18 ft 25 kts 141°
2026-05-07 04:03 49.18522 -123.18267 18 ft 20 kts 91°
2026-05-07 04:03 49.18507 -123.18118 18 ft 16 kts 100°
2026-05-07 04:04 49.18484 -123.17905 18 ft 24 kts 100°
2026-05-07 04:04 49.18457 -123.17691 18 ft 15 kts 95°
2026-05-07 04:04 49.18437 -123.17503 18 ft 22 kts 98°
2026-05-07 04:04 49.18405 -123.17324 18 ft 17 kts 146°
2026-05-07 04:05 49.18290 -123.17204 18 ft 19 kts 145°
2026-05-07 04:05 49.18261 -123.17081 18 ft 16 kts 95°
2026-05-07 04:05 49.18241 -123.16944 18 ft 8 kts 147°
2026-05-07 04:05 49.18186 -123.16914 18 ft 5 kts 187°
2026-05-07 04:06 49.18179 -123.16915 18 ft 0 kts 184°